Wind_Speed
26 33 36 38 36 37 40 40 38 38 37 37 35 33 35 36 37 37 37 37 39 41 43 46 50 50 51 53 56 59 59 62 68 68 66 65 65 66 69 73 77 80 83
22 28 32 36 36 38 40 37 36 35 36 37 37 37 37 37 38 37 38 40 43 44 47 50 52 55 56 58 61 63 64 68 71 74 76 75 75 74 73 74 74 75 78
24 30 34 33 35 38 36 34 34 35 37 38 39 40 40 41 42 43 44 45 46 48 51 55 57 59 61 62 66 69 72 73 76 78 80 78 76 69 60 55 54 57 60
27 31 30 27 33 33 33 35 37 38 39 40 41 43 44 45 47 48 49 51 53 55 57 59 61 64 67 69 68 65 63 68 67 66 66 64 59 52 52 54 53 54 53
31 33 29 31 34 34 36 40 41 42 42 43 45 46 47 49 51 53 55 56 58 59 61 64 66 69 67 59 53 55 58 60 52 51 51 49 50 52 52 53 53 50 46
36 37 36 35 36 37 39 42 45 45 45 45 47 49 50 52 55 57 57 59 60 63 65 65 67 60 50 45 46 50 52 51 48 48 48 48 47 47 49 51 50 44 39
37 38 37 36 38 39 42 47 48 47 46 47 50 51 53 55 58 59 60 61 62 63 62 63 54 46 42 42 46 48 47 45 45 45 46 46 45 48 49 50 49 44 36
40 42 40 38 39 42 45 48 48 47 48 51 53 53 55 57 58 59 61 62 62 60 57 50 43 40 41 42 44 45 44 45 46 47 46 43 43 43 41 40 41 40 35
42 43 40 39 42 45 47 49 49 49 51 54 55 55 57 58 59 61 63 64 61 52 46 39 40 40 39 42 44 45 46 47 48 49 48 45 40 36 36 36 34 33 31
38 40 40 41 45 49 52 51 49 50 54 55 55 56 58 59 60 61 60 55 45 36 35 37 39 38 41 44 47 49 50 51 52 51 49 47 43 40 39 35 31 31 30
37 38 39 42 47 53 52 51 48 51 55 56 58 59 60 60 59 57 49 40 34 37 37 37 37 40 44 47 49 51 51 52 53 51 48 47 46 43 41 36 31 30 29
38 38 38 42 48 48 44 46 49 53 55 59 61 59 60 60 59 54 42 37 38 38 37 37 40 43 47 49 51 51 50 50 50 46 44 43 42 41 39 37 33 30 28
43 42 38 37 42 39 42 47 51 53 60 65 61 59 59 59 56 46 40 38 38 38 38 40 44 47 50 51 51 50 48 47 46 42 41 41 38 36 34 35 32 28 24
43 42 27 22 30 37 43 49 51 59 64 60 57 57 57 56 47 39 38 38 39 39 41 44 48 51 51 51 49 47 46 45 42 39 38 38 34 31 29 28 26 23 20
40 42 35 25 30 37 44 52 59 60 56 54 55 55 55 47 39 37 37 38 40 42 45 48 52 53 52 49 48 45 45 43 38 36 35 34 30 27 24 23 21 19 16
38 30 28 28 37 43 51 57 55 52 52 53 54 53 45 38 36 36 38 41 43 45 50 53 54 53 49 46 45 44 42 40 35 33 32 30 29 24 22 19 18 16 15
30 27 35 39 43 48 54 51 48 51 53 53 52 45 37 36 36 38 41 43 46 48 52 54 53 49 47 45 42 41 41 37 34 31 28 26 26 21 19 16 15 13 14
39 35 35 36 41 47 47 48 50 51 50 49 43 36 35 36 38 41 43 46 49 51 52 51 50 48 46 43 41 41 39 35 30 28 26 23 24 19 16 15 13 10 11
54 43 38 40 44 46 47 48 48 46 47 42 35 34 36 37 40 43 45 48 50 50 51 50 50 47 42 40 40 37 33 29 25 24 24 22 23 16 14 14 12 9 9
47 42 43 42 41 43 45 45 43 43 40 35 33 35 37 40 42 44 46 48 49 51 52 51 49 44 39 39 36 28 25 22 21 21 21 19 18 14 12 13 12 10 9
38 37 36 36 38 40 41 41 41 38 33 32 34 35 38 41 42 44 46 47 50 52 50 46 44 42 41 37 29 25 21 19 19 18 17 14 13 10 11 14 14 12 10
32 32 33 34 35 37 38 37 35 31 30 32 34 36 39 40 42 43 45 48 50 49 45 43 43 40 36 29 24 23 21 19 16 13 12 9 6 7 11 14 13 10 8
28 30 32 33 34 34 33 31 29 28 30 32 34 37 38 40 42 43 45 47 47 44 42 41 37 31 27 25 24 23 20 16 13 11 9 6 4 10 13 13 10 9 13
28 30 32 31 30 30 27 24 24 27 29 32 35 37 38 40 42 43 44 45 43 41 39 35 29 24 23 25 23 19 17 14 9 4 3 2 8 13 15 15 16 17 19
28 27 26 27 26 23 19 20 23 26 29 33 35 37 39 42 43 42 43 43 40 37 34 29 24 21 23 23 19 15 12 8 4 5 3 3 10 13 19 20 20 20 20
22 22 23 23 20 15 16 20 23 26 30 33 35 36 40 42 42 41 42 41 37 34 31 28 25 23 22 22 20 13 8 6 9 9 8 8 9 14 21 22 21 22 21
Wind_Direction
304 302 304 310 320 322 323 324 326 324 322 318 317 314 315 312 311 311 309 307 307 305 302 299 298 296 294 292 292 294 291 287 289 287 283 281 280 282 284 284 283 281 278
302 298 301 310 318 320 323 324 323 320 317 317 316 316 315 312 311 311 310 308 307 305 301 299 298 297 297 295 293 292 290 287 285 284 284 285 286 287 288 286 284 282 279
302 300 304 315 320 322 323 321 318 317 318 318 317 317 314 312 312 312 310 308 307 304 303 302 301 300 298 296 295 295 294 293 291 289 289 288 287 288 288 290 293 296 293
297 296 303 314 318 321 324 322 320 320 319 318 318 316 314 312 310 308 307 308 307 306 305 305 303 301 299 300 299 299 299 301 298 293 291 292 291 288 288 287 291 297 300
287 290 294 304 309 313 317 319 319 319 318 317 317 315 313 311 309 308 308 308 307 306 306 306 304 303 304 303 303 305 306 309 307 300 297 295 292 290 287 286 288 289 291
287 290 290 294 303 307 310 314 317 317 317 316 315 314 312 310 309 309 309 308 307 307 307 305 305 305 304 304 307 309 310 312 310 307 304 301 298 295 292 290 289 289 287
284 287 285 290 301 305 306 311 315 316 318 317 315 312 310 310 310 310 308 307 306 305 304 303 304 303 303 305 307 307 308 311 310 307 304 302 299 297 295 292 288 284 283
279 283 283 286 295 300 304 308 312 314 318 317 315 312 310 309 308 306 305 304 302 301 302 303 301 301 303 306 306 306 308 311 309 304 301 299 299 299 298 297 291 284 278
276 277 282 288 291 294 299 305 311 315 315 314 313 310 309 308 307 306 306 304 301 299 301 302 302 304 306 307 306 307 309 311 312 305 298 294 292 292 297 302 300 291 283
270 274 282 290 290 290 297 306 310 311 311 311 311 311 310 309 308 309 309 309 306 299 300 302 303 305 308 309 309 308 309 312 312 309 299 292 285 284 290 295 299 299 295
274 272 279 282 285 290 297 305 309 310 311 312 313 312 311 311 310 309 307 312 308 303 303 305 306 309 311 312 310 309 310 312 311 307 299 292 286 281 281 284 291 299 298
270 268 270 278 284 289 300 309 312 313 312 312 313 312 311 311 311 307 299 300 301 302 304 306 309 312 313 313 310 310 311 312 311 306 301 298 288 280 275 275 282 292 295
277 267 255 264 283 300 309 314 316 315 312 310 311 311 311 311 310 303 295 298 301 302 306 308 311 312 313 312 310 309 310 312 310 304 304 303 293 280 275 273 277 283 288
283 274 256 281 299 304 310 315 313 312 310 309 311 312 311 310 308 302 299 301 302 305 307 309 311 312 313 311 308 307 307 309 308 305 305 305 301 285 277 273 272 273 278
275 280 279 298 305 309 313 313 312 310 309 311 313 313 311 309 306 304 303 304 305 307 310 311 311 313 312 309 309 308 306 306 307 307 305 304 302 289 280 272 267 264 265
276 275 291 309 310 311 313 313 312 310 312 313 313 313 310 308 307 308 307 307 309 312 313 313 314 313 311 310 309 308 304 301 305 306 306 301 302 292 285 276 261 252 254
287 302 311 319 315 314 313 313 312 313 314 313 313 311 307 308 310 310 310 312 314 315 314 314 315 313 311 310 308 305 301 297 298 301 305 300 302 292 283 273 259 245 250
296 318 322 317 313 312 312 312 311 314 314 313 311 308 308 311 313 313 314 317 318 318 317 317 316 315 313 311 309 306 303 298 292 296 302 298 303 288 271 262 247 236 244
292 317 318 311 309 310 310 310 313 314 314 311 308 308 311 315 315 316 319 321 320 320 320 320 317 316 315 313 313 311 307 299 291 294 299 294 296 280 259 246 225 219 219
293 303 304 304 305 307 309 313 315 313 310 307 307 310 314 314 317 321 323 323 324 323 323 322 321 322 322 320 319 318 309 298 292 295 298 291 287 268 245 225 200 197 200
296 298 301 304 307 310 313 315 313 309 306 305 308 313 315 317 322 325 326 327 327 327 328 328 328 328 326 324 323 323 317 304 299 299 301 293 280 245 223 199 187 194 217
290 295 299 306 310 311 311 309 306 304 304 307 313 317 319 324 327 329 331 331 331 332 332 332 330 329 329 328 327 327 321 312 307 300 302 295 253 198 185 179 182 200 224
291 294 299 305 307 306 306 305 303 304 307 312 317 320 325 329 332 333 333 333 334 333 332 332 332 333 336 334 331 330 325 317 304 294 291 287 188 157 158 160 162 164 161
290 295 299 300 300 301 303 301 302 307 314 318 321 326 332 334 335 334 334 336 336 335 336 337 339 342 344 340 336 334 330 325 315 283 266 261 155 150 153 152 141 136 140
292 296 295 296 299 302 301 301 308 316 320 322 326 333 337 337 336 336 336 338 338 340 342 344 345 345 348 349 346 340 336 346 84 97 44 117 150 154 156 150 138 135 134
287 289 294 300 301 298 301 309 318 322 324 329 334 339 339 339 339 339 340 341 341 344 347 346 346 346 352 358 358 360 13 70 96 74 56 91 131 158 159 154 148 144 138
Height
5860 5857 5854 5850 5847 5842 5837 5831 5827 5824 5823 5822 5820 5816 5813 5811 5808 5804 5799 5794 5790 5787 5783 5779 5774 5770 5766 5761 5755 5751 5746 5740 5735 5731 5728 5725 5721 5719 5715 5709 5703 5698 5693
5856 5853 5850 5847 5842 5837 5832 5827 5824 5822 5819 5817 5813 5809 5806 5803 5799 5794 5789 5785 5782 5777 5772 5768 5763 5758 5752 5746 5739 5734 5729 5723 5716 5710 5705 5702 5702 5700 5695 5685 5678 5673 5667
5850 5847 5844 5840 5835 5831 5827 5824 5821 5818 5814 5810 5806 5802 5798 5794 5789 5784 5780 5776 5773 5769 5763 5756 5750 5743 5737 5730 5722 5715 5709 5702 5694 5685 5678 5675 5674 5674 5671 5663 5659 5653 5647
5844 5841 5839 5836 5832 5827 5823 5820 5816 5812 5808 5804 5800 5795 5790 5786 5781 5776 5770 5766 5760 5755 5749 5743 5736 5728 5720 5713 5705 5697 5689 5682 5673 5666 5660 5655 5652 5651 5650 5646 5644 5639 5632
5840 5837 5835 5832 5829 5824 5819 5813 5808 5803 5800 5796 5792 5787 5782 5777 5771 5765 5760 5754 5748 5742 5735 5728 5720 5712 5704 5696 5689 5682 5674 5665 5657 5652 5647 5643 5640 5637 5635 5630 5629 5626 5621
5833 5831 5829 5826 5822 5817 5812 5806 5801 5797 5793 5789 5784 5779 5774 5768 5761 5755 5749 5742 5735 5728 5720 5711 5703 5696 5690 5684 5678 5672 5663 5654 5647 5641 5636 5631 5627 5623 5620 5616 5613 5612 5609
5827 5824 5822 5819 5815 5810 5805 5799 5795 5790 5786 5782 5776 5771 5765 5759 5752 5745 5737 5730 5723 5715 5708 5699 5691 5685 5679 5674 5667 5661 5653 5646 5640 5633 5627 5621 5616 5611 5607 5603 5600 5599 5599
5820 5818 5816 5813 5808 5803 5798 5793 5789 5784 5780 5774 5769 5763 5757 5750 5743 5735 5727 5719 5712 5703 5696 5688 5682 5675 5669 5663 5657 5651 5644 5637 5630 5624 5618 5612 5607 5602 5596 5592 5588 5586 5586
5812 5809 5807 5805 5801 5795 5790 5786 5782 5778 5773 5767 5761 5755 5748 5741 5732 5723 5714 5706 5697 5690 5683 5678 5672 5666 5660 5654 5648 5641 5634 5627 5620 5613 5607 5602 5598 5593 5588 5584 5579 5576 5575
5805 5803 5800 5798 5793 5788 5782 5779 5774 5770 5766 5760 5752 5745 5737 5729 5719 5711 5701 5690 5681 5677 5673 5667 5662 5657 5651 5645 5638 5631 5623 5616 5608 5601 5595 5590 5586 5583 5578 5576 5572 5568 5563
5797 5795 5794 5789 5784 5779 5775 5771 5766 5760 5754 5747 5741 5733 5725 5716 5706 5698 5689 5680 5675 5671 5665 5659 5653 5648 5642 5635 5627 5619 5611 5603 5594 5587 5581 5576 5573 5570 5568 5566 5563 5560 5555
5787 5787 5783 5778 5775 5770 5767 5762 5757 5751 5744 5737 5730 5722 5713 5704 5695 5686 5679 5672 5667 5662 5657 5651 5645 5638 5631 5624 5615 5606 5598 5590 5581 5574 5569 5564 5559 5557 5556 5555 5554 5551 5548
5777 5774 5768 5766 5765 5762 5758 5753 5746 5740 5734 5727 5718 5710 5702 5693 5685 5677 5670 5664 5659 5653 5647 5641 5635 5627 5619 5611 5602 5594 5585 5577 5570 5563 5558 5552 5546 5544 5543 5543 5543 5543 5541
5767 5762 5753 5752 5754 5752 5747 5743 5736 5731 5724 5716 5708 5699 5692 5683 5675 5668 5661 5656 5650 5644 5638 5631 5624 5616 5608 5598 5588 5580 5572 5565 5559 5553 5547 5542 5536 5533 5533 5533 5534 5535 5535
5757 5755 5749 5746 5746 5742 5737 5732 5727 5720 5713 5705 5697 5688 5681 5673 5665 5659 5653 5647 5642 5635 5627 5620 5612 5603 5594 5583 5574 5567 5559 5553 5548 5543 5537 5532 5528 5525 5524 5525 5526 5527 5528
5749 5744 5741 5739 5736 5732 5728 5722 5715 5709 5702 5694 5686 5678 5671 5664 5657 5651 5645 5639 5632 5624 5615 5606 5598 5589 5580 5571 5562 5555 5549 5542 5538 5533 5528 5524 5521 5518 5518 5518 5519 5521 5522
5741 5732 5727 5726 5726 5721 5717 5710 5704 5698 5690 5683 5676 5669 5663 5657 5650 5643 5637 5630 5621 5613 5604 5594 5585 5576 5567 5559 5552 5544 5537 5531 5528 5523 5520 5516 5513 5512 5512 5512 5513 5515 5517
5729 5723 5720 5718 5716 5712 5705 5701 5696 5687 5681 5675 5668 5662 5656 5650 5643 5635 5628 5619 5610 5601 5591 5582 5573 5564 5555 5547 5540 5531 5525 5521 5517 5514 5512 5509 5506 5505 5506 5506 5508 5510 5512
5719 5715 5712 5710 5706 5702 5698 5693 5685 5679 5674 5668 5662 5656 5649 5643 5636 5627 5618 5609 5599 5589 5580 5570 5561 5552 5543 5535 5528 5520 5514 5510 5507 5506 5504 5502 5500 5499 5500 5501 5504 5506 5509
5711 5710 5707 5702 5698 5695 5690 5683 5677 5672 5668 5663 5657 5650 5643 5636 5628 5619 5609 5600 5589 5579 5569 5559 5548 5540 5532 5525 5518 5511 5506 5502 5500 5499 5497 5495 5495 5494 5495 5497 5500 5504 5507
5706 5703 5700 5696 5691 5686 5680 5675 5672 5668 5662 5657 5652 5644 5638 5630 5620 5611 5601 5591 5580 5569 5559 5548 5538 5530 5522 5515 5509 5504 5499 5496 5494 5492 5491 5489 5489 5489 5491 5494 5498 5502 5504
5697 5695 5693 5688 5682 5679 5675 5672 5668 5663 5658 5653 5645 5639 5632 5622 5613 5603 5593 5583 5572 5560 5550 5541 5531 5523 5515 5508 5503 5499 5495 5491 5489 5488 5486 5485 5485 5486 5489 5493 5497 5500 5501
5690 5688 5685 5681 5678 5674 5671 5667 5663 5658 5653 5647 5640 5633 5625 5615 5606 5597 5587 5577 5566 5555 5545 5536 5527 5519 5511 5505 5499 5495 5490 5487 5485 5484 5484 5483 5483 5485 5489 5493 5496 5498 5500
5684 5681 5679 5675 5673 5670 5666 5663 5659 5654 5648 5642 5635 5627 5618 5609 5601 5592 5582 5572 5561 5551 5540 5531 5523 5516 5510 5502 5497 5492 5488 5484 5482 5482 5483 5483 5483 5486 5489 5494 5496 5500 5503
5678 5676 5674 5672 5669 5665 5661 5659 5656 5650 5644 5637 5630 5621 5612 5604 5595 5586 5577 5567 5556 5547 5537 5529 5521 5515 5508 5502 5496 5491 5487 5484 5483 5484 5484 5484 5485 5487 5491 5495 5499 5502 5506
5674 5672 5669 5666 5664 5661 5659 5657 5652 5647 5640 5632 5624 5617 5608 5599 5590 5581 5572 5561 5551 5542 5534 5525 5519 5512 5507 5500 5495 5490 5488 5487 5487 5487 5486 5486 5487 5488 5492 5497 5501 5506 5510